Index of /20260422/WXO-DD/model_gdps/15km/00/195
Name Last modified Size Description
Parent Directory -
20260422T00Z_MSC_GDPS_AirTemp_AGL-120m_LatLon0.15_PT195H.grib2 2026-04-22 04:41 909K
20260422T00Z_MSC_GDPS_AirTemp_AGL-2m_LatLon0.15_PT195H.grib2 2026-04-22 04:41 1.0M
20260422T00Z_MSC_GDPS_AirTemp_AGL-40m_LatLon0.15_PT195H.grib2 2026-04-22 04:41 813K
20260422T00Z_MSC_GDPS_AirTemp_AGL-80m_LatLon0.15_PT195H.grib2 2026-04-22 04:41 919K
20260422T00Z_MSC_GDPS_AirTemp_IsbL-0001_LatLon0.15_PT195H.grib2 2026-04-22 04:41 713K
20260422T00Z_MSC_GDPS_AirTemp_IsbL-0005_LatLon0.15_PT195H.grib2 2026-04-22 04:41 683K
20260422T00Z_MSC_GDPS_AirTemp_IsbL-0500_LatLon0.15_PT195H.grib2 2026-04-22 04:41 1.0M
20260422T00Z_MSC_GDPS_AirTemp_IsbL-0700_LatLon0.15_PT195H.grib2 2026-04-22 04:41 953K
20260422T00Z_MSC_GDPS_AirTemp_IsbL-0850_LatLon0.15_PT195H.grib2 2026-04-22 04:41 1.1M
20260422T00Z_MSC_GDPS_AirTemp_IsbL-0925_LatLon0.15_PT195H.grib2 2026-04-22 04:41 1.1M
20260422T00Z_MSC_GDPS_AirTemp_IsbL-1000_LatLon0.15_PT195H.grib2 2026-04-22 04:41 1.1M
20260422T00Z_MSC_GDPS_Albedo_Sfc_LatLon0.15_PT195H.grib2 2026-04-22 04:41 245K
20260422T00Z_MSC_GDPS_ConvectivePrecip-Accum_Sfc_LatLon0.15_PT195H.grib2 2026-04-22 04:41 3.9M
20260422T00Z_MSC_GDPS_DewPointDepression_AGL-2m_LatLon0.15_PT195H.grib2 2026-04-22 04:41 758K
20260422T00Z_MSC_GDPS_DewPointDepression_IsbL-0500_LatLon0.15_PT195H.grib2 2026-04-22 04:41 1.0M
20260422T00Z_MSC_GDPS_DewPointDepression_IsbL-0700_LatLon0.15_PT195H.grib2 2026-04-22 04:41 1.1M
20260422T00Z_MSC_GDPS_DewPointDepression_IsbL-0850_LatLon0.15_PT195H.grib2 2026-04-22 04:41 1.2M
20260422T00Z_MSC_GDPS_DewPointDepression_IsbL-0925_LatLon0.15_PT195H.grib2 2026-04-22 04:41 1.0M
20260422T00Z_MSC_GDPS_DewPointDepression_IsbL-1000_LatLon0.15_PT195H.grib2 2026-04-22 04:41 973K
20260422T00Z_MSC_GDPS_DewPoint_AGL-2m_LatLon0.15_PT195H.grib2 2026-04-22 04:41 603K
20260422T00Z_MSC_GDPS_DownwardLongwaveRadiationFlux-Accum_Sfc_LatLon0.15_PT195H.grib2 2026-04-22 04:41 666K
20260422T00Z_MSC_GDPS_DownwardShortwaveRadiationFlux-Accum_Sfc_LatLon0.15_PT195H.grib2 2026-04-22 04:41 872K
20260422T00Z_MSC_GDPS_FreezingRain-Accum_Sfc_LatLon0.15_PT195H.grib2 2026-04-22 04:41 517K
20260422T00Z_MSC_GDPS_GeopotentialHeight_IsbL-0001_LatLon0.15_PT195H.grib2 2026-04-22 04:41 381K
20260422T00Z_MSC_GDPS_GeopotentialHeight_IsbL-0005_LatLon0.15_PT195H.grib2 2026-04-22 04:41 491K
20260422T00Z_MSC_GDPS_GeopotentialHeight_IsbL-0500_LatLon0.15_PT195H.grib2 2026-04-22 04:41 532K
20260422T00Z_MSC_GDPS_GeopotentialHeight_IsbL-0700_LatLon0.15_PT195H.grib2 2026-04-22 04:41 687K
20260422T00Z_MSC_GDPS_GeopotentialHeight_IsbL-0850_LatLon0.15_PT195H.grib2 2026-04-22 04:41 712K
20260422T00Z_MSC_GDPS_GeopotentialHeight_IsbL-0925_LatLon0.15_PT195H.grib2 2026-04-22 04:41 737K
20260422T00Z_MSC_GDPS_GeopotentialHeight_IsbL-1000_LatLon0.15_PT195H.grib2 2026-04-22 04:41 791K
20260422T00Z_MSC_GDPS_IcePellets-Accum_Sfc_LatLon0.15_PT195H.grib2 2026-04-22 04:41 198K
20260422T00Z_MSC_GDPS_LatentHeatNetFlux_Sfc_LatLon0.15_PT195H.grib2 2026-04-22 04:41 676K
20260422T00Z_MSC_GDPS_NetLongwaveRadiationFlux-Accum_Sfc_LatLon0.15_PT195H.grib2 2026-04-22 04:41 883K
20260422T00Z_MSC_GDPS_NetShortwaveRadiationFlux-Accum_Sfc_LatLon0.15_PT195H.grib2 2026-04-22 04:41 870K
20260422T00Z_MSC_GDPS_O3MixingRatio_LatLon0.15_PT195H.grib2 2026-04-22 05:00 1.9M
20260422T00Z_MSC_GDPS_O3_EAtm_LatLon0.15_PT195H.grib2 2026-04-22 05:00 2.4M
20260422T00Z_MSC_GDPS_PlanetaryBoundaryLayerHeight_Sfc_LatLon0.15_PT195H.grib2 2026-04-22 04:41 2.5M
20260422T00Z_MSC_GDPS_Precip-Accum_Sfc_LatLon0.15_PT195H.grib2 2026-04-22 04:41 5.1M
20260422T00Z_MSC_GDPS_PrecipRate_Sfc_LatLon0.15_PT195H.grib2 2026-04-22 04:41 3.0M
20260422T00Z_MSC_GDPS_Pressure_MSL_LatLon0.15_PT195H.grib2 2026-04-22 04:41 824K
20260422T00Z_MSC_GDPS_Pressure_Sfc_LatLon0.15_PT195H.grib2 2026-04-22 04:41 1.1M
20260422T00Z_MSC_GDPS_RadiativeTemp_Sfc_LatLon0.15_PT195H.grib2 2026-04-22 04:41 662K
20260422T00Z_MSC_GDPS_Rain-Accum_Sfc_LatLon0.15_PT195H.grib2 2026-04-22 04:41 4.2M
20260422T00Z_MSC_GDPS_RelativeHumidity_AGL-2m_LatLon0.15_PT195H.grib2 2026-04-22 04:41 1.1M
20260422T00Z_MSC_GDPS_Runoff-Accum_Sfc_LatLon0.15_PT195H.grib2 2026-04-22 04:41 124K
20260422T00Z_MSC_GDPS_SensibleHeatNetFlux_Sfc_LatLon0.15_PT195H.grib2 2026-04-22 04:41 622K
20260422T00Z_MSC_GDPS_Snow-Accum_Sfc_LatLon0.15_PT195H.grib2 2026-04-22 04:41 2.0M
20260422T00Z_MSC_GDPS_SnowDepth_Sfc_LatLon0.15_PT195H.grib2 2026-04-22 04:41 1.8M
20260422T00Z_MSC_GDPS_SoilTemp_DBS-0to10cm_LatLon0.15_PT195H.grib2 2026-04-22 04:41 510K
20260422T00Z_MSC_GDPS_SoilTemp_Sfc_LatLon0.15_PT195H.grib2 2026-04-22 04:41 571K
20260422T00Z_MSC_GDPS_SoilVolumetricWaterContent_DBS-0to10cm_LatLon0.15_PT195H.grib2 2026-04-22 04:41 582K
20260422T00Z_MSC_GDPS_SoilVolumetricWaterContent_DBS-0to1cm_LatLon0.15_PT195H.grib2 2026-04-22 04:41 657K
20260422T00Z_MSC_GDPS_SpecificHumidity_AGL-120m_LatLon0.15_PT195H.grib2 2026-04-22 04:41 1.1M
20260422T00Z_MSC_GDPS_SpecificHumidity_AGL-2m_LatLon0.15_PT195H.grib2 2026-04-22 04:41 1.2M
20260422T00Z_MSC_GDPS_SpecificHumidity_AGL-40m_LatLon0.15_PT195H.grib2 2026-04-22 04:41 1.1M
20260422T00Z_MSC_GDPS_SpecificHumidity_AGL-80m_LatLon0.15_PT195H.grib2 2026-04-22 04:41 1.1M
20260422T00Z_MSC_GDPS_SpecificHumidity_IsbL-0001_LatLon0.15_PT195H.grib2 2026-04-22 04:41 1.1M
20260422T00Z_MSC_GDPS_SpecificHumidity_IsbL-0005_LatLon0.15_PT195H.grib2 2026-04-22 04:41 1.3M
20260422T00Z_MSC_GDPS_SpecificHumidity_IsbL-0500_LatLon0.15_PT195H.grib2 2026-04-22 04:41 1.4M
20260422T00Z_MSC_GDPS_SpecificHumidity_IsbL-0700_LatLon0.15_PT195H.grib2 2026-04-22 04:41 1.6M
20260422T00Z_MSC_GDPS_SpecificHumidity_IsbL-0850_LatLon0.15_PT195H.grib2 2026-04-22 04:41 1.9M
20260422T00Z_MSC_GDPS_SpecificHumidity_IsbL-0925_LatLon0.15_PT195H.grib2 2026-04-22 04:41 1.6M
20260422T00Z_MSC_GDPS_SpecificHumidity_IsbL-1000_LatLon0.15_PT195H.grib2 2026-04-22 04:41 1.5M
20260422T00Z_MSC_GDPS_SpecificHumidity_Sfc_LatLon0.15_PT195H.grib2 2026-04-22 04:41 631K
20260422T00Z_MSC_GDPS_Thickness_IsbL-0850to0700_LatLon0.15_PT195H.grib2 2026-04-22 04:41 469K
20260422T00Z_MSC_GDPS_Thickness_IsbL-1000to0500_LatLon0.15_PT195H.grib2 2026-04-22 04:41 378K
20260422T00Z_MSC_GDPS_Thickness_IsbL-1000to0850_LatLon0.15_PT195H.grib2 2026-04-22 04:41 492K
20260422T00Z_MSC_GDPS_TotalCloudCover_Sfc_LatLon0.15_PT195H.grib2 2026-04-22 04:41 837K
20260422T00Z_MSC_GDPS_UVIndex-ClearSky_Sfc_LatLon0.15_PT195H.grib2 2026-04-22 05:00 1.0M
20260422T00Z_MSC_GDPS_UVIndex_Sfc_LatLon0.15_PT195H.grib2 2026-04-22 05:00 1.5M
20260422T00Z_MSC_GDPS_UpwardLongwaveRadiationFlux_NTAtm_LatLon0.15_PT195H.grib2 2026-04-22 04:41 1.1M
20260422T00Z_MSC_GDPS_VerticalVelocity_IsbL-0500_LatLon0.15_PT195H.grib2 2026-04-22 04:41 1.0M
20260422T00Z_MSC_GDPS_VerticalVelocity_IsbL-0700_LatLon0.15_PT195H.grib2 2026-04-22 04:41 1.1M
20260422T00Z_MSC_GDPS_VerticalVelocity_IsbL-0850_LatLon0.15_PT195H.grib2 2026-04-22 04:41 1.3M
20260422T00Z_MSC_GDPS_WindDir_AGL-10m_LatLon0.15_PT195H.grib2 2026-04-22 04:41 1.3M
20260422T00Z_MSC_GDPS_WindDir_AGL-120m_LatLon0.15_PT195H.grib2 2026-04-22 04:41 1.4M
20260422T00Z_MSC_GDPS_WindDir_AGL-40m_LatLon0.15_PT195H.grib2 2026-04-22 04:41 1.4M
20260422T00Z_MSC_GDPS_WindDir_AGL-80m_LatLon0.15_PT195H.grib2 2026-04-22 04:41 1.4M
20260422T00Z_MSC_GDPS_WindDir_IsbL-0001_LatLon0.15_PT195H.grib2 2026-04-22 04:41 686K
20260422T00Z_MSC_GDPS_WindDir_IsbL-0005_LatLon0.15_PT195H.grib2 2026-04-22 04:41 797K
20260422T00Z_MSC_GDPS_WindDir_IsbL-0500_LatLon0.15_PT195H.grib2 2026-04-22 04:41 1.3M
20260422T00Z_MSC_GDPS_WindDir_IsbL-0700_LatLon0.15_PT195H.grib2 2026-04-22 04:41 1.6M
20260422T00Z_MSC_GDPS_WindDir_IsbL-0850_LatLon0.15_PT195H.grib2 2026-04-22 04:41 1.9M
20260422T00Z_MSC_GDPS_WindDir_IsbL-0925_LatLon0.15_PT195H.grib2 2026-04-22 04:41 2.0M
20260422T00Z_MSC_GDPS_WindDir_IsbL-1000_LatLon0.15_PT195H.grib2 2026-04-22 04:41 2.1M
20260422T00Z_MSC_GDPS_WindGust-Max_AGL-10m_LatLon0.15_PT195H.grib2 2026-04-22 04:41 2.2M
20260422T00Z_MSC_GDPS_WindGust-Min_AGL-10m_LatLon0.15_PT195H.grib2 2026-04-22 04:41 2.2M
20260422T00Z_MSC_GDPS_WindGust_AGL-10m_LatLon0.15_PT195H.grib2 2026-04-22 04:41 2.2M
20260422T00Z_MSC_GDPS_WindSpeed_AGL-10m_LatLon0.15_PT195H.grib2 2026-04-22 04:41 1.1M
20260422T00Z_MSC_GDPS_WindSpeed_AGL-120m_LatLon0.15_PT195H.grib2 2026-04-22 04:41 1.3M
20260422T00Z_MSC_GDPS_WindSpeed_AGL-40m_LatLon0.15_PT195H.grib2 2026-04-22 04:41 1.2M
20260422T00Z_MSC_GDPS_WindSpeed_AGL-80m_LatLon0.15_PT195H.grib2 2026-04-22 04:41 1.3M
20260422T00Z_MSC_GDPS_WindSpeed_IsbL-0001_LatLon0.15_PT195H.grib2 2026-04-22 04:41 637K
20260422T00Z_MSC_GDPS_WindSpeed_IsbL-0005_LatLon0.15_PT195H.grib2 2026-04-22 04:41 606K
20260422T00Z_MSC_GDPS_WindSpeed_IsbL-0500_LatLon0.15_PT195H.grib2 2026-04-22 04:41 1.1M
20260422T00Z_MSC_GDPS_WindSpeed_IsbL-0700_LatLon0.15_PT195H.grib2 2026-04-22 04:41 1.5M
20260422T00Z_MSC_GDPS_WindSpeed_IsbL-0850_LatLon0.15_PT195H.grib2 2026-04-22 04:41 1.7M
20260422T00Z_MSC_GDPS_WindSpeed_IsbL-0925_LatLon0.15_PT195H.grib2 2026-04-22 04:41 1.8M
20260422T00Z_MSC_GDPS_WindSpeed_IsbL-1000_LatLon0.15_PT195H.grib2 2026-04-22 04:41 1.9M
20260422T00Z_MSC_GDPS_WindU_AGL-10m_LatLon0.15_PT195H.grib2 2026-04-22 04:41 1.3M
20260422T00Z_MSC_GDPS_WindU_AGL-120m_LatLon0.15_PT195H.grib2 2026-04-22 04:41 1.0M
20260422T00Z_MSC_GDPS_WindU_AGL-40m_LatLon0.15_PT195H.grib2 2026-04-22 04:41 1.0M
20260422T00Z_MSC_GDPS_WindU_AGL-80m_LatLon0.15_PT195H.grib2 2026-04-22 04:41 1.0M
20260422T00Z_MSC_GDPS_WindU_IsbL-0001_LatLon0.15_PT195H.grib2 2026-04-22 04:41 639K
20260422T00Z_MSC_GDPS_WindU_IsbL-0005_LatLon0.15_PT195H.grib2 2026-04-22 04:41 683K
20260422T00Z_MSC_GDPS_WindU_IsbL-0500_LatLon0.15_PT195H.grib2 2026-04-22 04:41 1.1M
20260422T00Z_MSC_GDPS_WindU_IsbL-0700_LatLon0.15_PT195H.grib2 2026-04-22 04:41 1.2M
20260422T00Z_MSC_GDPS_WindU_IsbL-0850_LatLon0.15_PT195H.grib2 2026-04-22 04:41 1.4M
20260422T00Z_MSC_GDPS_WindU_IsbL-0925_LatLon0.15_PT195H.grib2 2026-04-22 04:41 1.5M
20260422T00Z_MSC_GDPS_WindU_IsbL-1000_LatLon0.15_PT195H.grib2 2026-04-22 04:41 1.4M
20260422T00Z_MSC_GDPS_WindV_AGL-10m_LatLon0.15_PT195H.grib2 2026-04-22 04:41 1.6M
20260422T00Z_MSC_GDPS_WindV_AGL-120m_LatLon0.15_PT195H.grib2 2026-04-22 04:41 1.0M
20260422T00Z_MSC_GDPS_WindV_AGL-40m_LatLon0.15_PT195H.grib2 2026-04-22 04:41 1.0M
20260422T00Z_MSC_GDPS_WindV_AGL-80m_LatLon0.15_PT195H.grib2 2026-04-22 04:41 1.0M
20260422T00Z_MSC_GDPS_WindV_IsbL-0001_LatLon0.15_PT195H.grib2 2026-04-22 04:41 702K
20260422T00Z_MSC_GDPS_WindV_IsbL-0005_LatLon0.15_PT195H.grib2 2026-04-22 04:41 756K
20260422T00Z_MSC_GDPS_WindV_IsbL-0500_LatLon0.15_PT195H.grib2 2026-04-22 04:41 1.1M
20260422T00Z_MSC_GDPS_WindV_IsbL-0700_LatLon0.15_PT195H.grib2 2026-04-22 04:41 1.2M
20260422T00Z_MSC_GDPS_WindV_IsbL-0850_LatLon0.15_PT195H.grib2 2026-04-22 04:41 1.4M
20260422T00Z_MSC_GDPS_WindV_IsbL-0925_LatLon0.15_PT195H.grib2 2026-04-22 04:41 1.5M
20260422T00Z_MSC_GDPS_WindV_IsbL-1000_LatLon0.15_PT195H.grib2 2026-04-22 04:41 1.7M